Погода в Воскресенске

Россия / Московская область     55°19′22″N   38°40′24″E
темп.,
°C
ветер,
м/с
пор.,
м/с
влажн.,
%
обл.,
%
осадки,
мм/ч
давл.,
гПа
погр.,
м
12 апреля, пн
пн1200:00+6вюв34730 0.0 103353
03:00+5в3480100 0.0 103467
06:00+4в3982100 0.0 1034192
09:00+9в51459100 0.0 1033552
12:00+12в71045100 0.0 1032828
15:00+13в6857100 0.0 1030790
18:00+12в5968100 0.0 1029598
21:00+8в4108791 0.0 1029259
13 апреля, вт
вт1300:00+7в4119582 0.0 1028229
03:00+7вюв399586 0.0 1028166
06:00+7юв4108998 0.0 1027167
09:00+12ююв51166100 0.0 1027349
12:00+18ююв6840100 0.0 1026852
15:00+19ю683796 0.0 10251796
18:00+17ююв48465 0.0 1024196
21:00+12юв36606 0.0 102575
14 апреля, ср
ср1400:00+10юв4106736 0.0 1024167
03:00+9ююв410715 0.0 1024166
06:00+8юв377334 0.0 1024101
09:00+12ююв4858100 0.0 1023287
12:00+17ююв57435 0.0 1021835
15:00+19ююв6834100 0.0 10201641
18:00+16ююв3447100 0.0 101982
21:00+12юв396299 0.0 1019156
15 апреля, чт
чт1500:00+10юв3768100 0.0 1019125
03:00+9юв3571100 0.0 101875
06:00+8юв3474100 0.0 101862
09:00+12ююв3563100 0.0 1017248
12:00+16ю224773 0.0 1017660
15:00+18зсз0140100 0.0 10161238
18:00+16св1149100 0.0 101512
21:00+13в2259100 0.0 101519
16 апреля, пт
пт1600:00+11с4973100 0.0 1016165
03:00+10ссв51183100 0.0 1016313
06:00+8ссв51187100 0.1 1017437
09:00+7ссв61290100 2.7 1018503
12:00+6св71390100 1.4 1020684
15:00+5св71490100 4.7 1022876
18:00+8св71357100 0.1 10221242
21:00+5св81555100 0.1 1024839